TUBIN
1 48900U 21059X   25272.82525339  .00149695  00000-0  10717-2 0  9995
2 48900  97.6764  92.1365 0002460 177.2738 182.8538 15.73262560237605
LEDSAT
1 49069U 21073D   25272.75233470  .00584908  13672-3  18244-2 0  9997
2 49069  97.3722   0.6198 0004707 310.4937  49.5925 15.91520245229044
CUTE
1 49263U 21088D   25272.79526051  .00043920  00000-0  71513-3 0  9994
2 49263  97.4409 352.6651 0006518 170.5600 189.5776 15.52506114221802
TeikyoSat 4
1 49396U 21102B   25272.63550859  .00004920  00000-0  32192-3 0  9991
2 49396  97.4015 306.9947 0014082 107.4616 252.8153 15.08128741213433
Z-Sat
1 49399U 21102E   25272.84761302  .00009625  00000-0  51065-3 0  9991
2 49399  97.3702 311.0162 0019383  76.4990 283.8401 15.15388189213974
KOSEN 1
1 49402U 21102H   25272.64467801  .00016280  00000-0  71522-3 0  9996
2 49402  97.3594 315.1160 0016533  51.4462 308.8253 15.21869180214327
HO-113
1 50466U 21131B   25272.84106509  .00001387  00000-0  44550-3 0  9990
2 50466  98.5077   1.6365 0004804 147.9230 212.2251 14.40953483197612
SNUGLITE 2
1 52899U 22065F   25272.83485453  .00002987  00000-0  58506-3 0  9999
2 52899  98.1853  53.8352 0008564 117.9689 242.2380 14.63508424172906
UmKA 1 (RS40S)
1 57172U 23091G   25272.82065919  .00013593  00000-0  69539-3 0  9991
2 57172  97.5461 327.6349 0012551 309.8880  50.1249 15.16690133124485
CubeBel-2 (EU11S)
1 57175U 23091K   25272.79379102  .00024307  00000-0  10792-2 0  9993
2 57175  97.5454 329.4969 0010229 315.3793  44.6618 15.21504806124602
ENSO
1 58470U 23185J   25270.96155755  .00229092  00000-0  15463-2 0  9997
2 58470  97.3590 350.7077 0002480  10.2309 349.9006 15.74419810102270
SONATE-2
1 59112U 24043Q   25272.82711796  .00043136  00000-0  10782-2 0  9997
2 59112  97.5272  46.6458 0010704  73.4617 286.7804 15.39954931 87587
MO-122
1 60209U 24125G   25272.22305878  .00040050  00000-0  98080-3 0  9991
2 60209  97.2648 122.8194 0018655  94.8468 265.4909 15.40468276 69111
GRBBeta
1 60237U 24128C   25272.63220882  .00011569  00000-0  82459-3 0  9997
2 60237  61.9919  48.5945 0056823  81.1513 279.6006 15.03685653 67042
Curium One
1 60242U 24128H   25272.72584881  .00021011  00000-0  13572-2 0  9997
2 60242  61.9819  44.7232 0056651  78.0289 282.7146 15.06955785 67126
ROBUSTA-3A
1 60243U 24128J   25272.76604118  .00020095  00000-0  13202-2 0  9999
2 60243  61.9890  45.8099 0056271  75.3984 285.3340 15.06375030 67112
CatSat
1 60246U 24125J   25271.35671498  .00041606  00000-0  12259-2 0  9990
2 60246  97.2468 119.8581 0040574  60.2516 300.2755 15.34079250 66942
HYPERVIEW-1G (RS66S)
1 61772U 24199AP  25272.86636544  .00065162  00000-0  15824-2 0  9990
2 61772  97.3333 141.7392 0013414 140.7538 219.4683 15.40691396 94214
AO-123
1 61781U 24199AY  25272.87892973  .00014658  00000-0  50549-3 0  9999
2 61781  97.3359 139.2065 0016050 152.8634 207.3449 15.29966395 94049
ZIMSAT 2
1 61783U 24199BA  25272.85291619  .00141719  00000-0  23931-2 0  9992
2 61783  97.3279 143.5050 0012562 131.5434 228.6898 15.51035827 97487
HADES-R (SO-124)
1 62690U 25009CK  25272.22276950  .00106560  00000-0  27255-2 0  9991
2 62690  97.3992 353.1863 0001627  77.5707 282.5720 15.39017216 39252
HYDRA-T
1 62692U 25009CM  25271.72686883  .00103533  00000-0  26146-2 0  9992
2 62692  97.3997 352.7825 0001404  71.6095 288.5303 15.39420937 39183
JINJUSat 1B
1 63210U 25052A   25272.64093020  .00030404  00000-0  12782-2 0  9991
2 63210  97.4238 165.4279 0001865 316.6687  43.4403 15.23357989 30292
NUSHSAT 1
1 63211U 25052B   25272.21538646  .00028282  00000-0  11710-2 0  9994
2 63211  97.4230 165.0525 0002097 330.2930  29.8187 15.23887438 30234
TEVEL2-4
1 63213U 25052D   25272.64902398  .00032762  00000-0  13720-2 0  9993
2 63213  97.4148 165.1762 0002285   3.1536 356.9715 15.23472339 30292
TEVEL2-5
1 63214U 25052E   25272.65171684  .00032667  00000-0  13697-2 0  9998
2 63214  97.4147 165.1730 0002329   4.8752 355.2507 15.23431644 30299
TEVEL2-6
1 63215U 25052F   25272.72250166  .00036419  00000-0  15274-2 0  9992
2 63215  97.4148 165.2341 0002340   3.5682 356.5571 15.23398141 30302
TEVEL2-1
1 63217U 25052H   25272.68526521  .00030861  00000-0  13061-2 0  9997
2 63217  97.4118 165.0673 0002925  14.4241 345.7079 15.23125982 30290
TEVEL2-3
1 63218U 25052J   25272.68523539  .00030648  00000-0  12967-2 0  9991
2 63218  97.4114 165.0701 0003111  13.8430 346.2891 15.23136260 30299
TEVEL2-2
1 63219U 25052K   25272.68600858  .00031177  00000-0  13195-2 0  9994
2 63219  97.4121 165.0675 0003012  14.7082 345.4242 15.23122916 30295
TEVEL2-9
1 63237U 25052AD  25272.64643962  .00030641  00000-0  13477-2 0  9991
2 63237  97.4190 164.8299 0007502   2.5694 357.5580 15.21796254 30268
TEVEL2-7
1 63238U 25052AE  25272.65431381  .00030523  00000-0  13464-2 0  9998
2 63238  97.4189 164.8244 0007545   1.7791 358.3471 15.21697527 30264
TEVEL2-8
1 63239U 25052AF  25272.65859843  .00030663  00000-0  13537-2 0  9992
2 63239  97.4186 164.8168 0007532   1.9684 358.1581 15.21668866 30260
HYDRA-W
1 63490U 25052BL  25272.14801804  .00072979  00000-0  24803-2 0  9993
2 63490  97.4123 165.5057 0009262 359.6237   0.4995 15.30143694 30278
HADES-ICM (SO-125)
1 63492U 25052BN  25271.68403005  .00061372  00000-0  21523-2 0  9995
2 63492  97.4134 164.9206 0009993   3.0763 357.0537 15.29171448 30196
